Regional Weather Roundup
Issued by NWS State College, PA

Home | Current Version | Previous Version | Text Only | Print | Product List | Glossary Off
Versions: 1 2 3 4 5 6 7 8 9 10 11 12 13 14 15 16 17 18 19 20 21 22 23 24 25 26 27 28 29 30 31 32 33 34 35 36 37 38 39 40 41 42 43 44 45 46 47 48 49 50

000
ASUS41 KCTP 250703
RWRCTP

REGIONAL WEATHER ROUNDUP
NATIONAL WEATHER SERVICE STATE COLLEGE PA
300 AM EDT SAT MAR 25 2017

Note: "fair" indicates few or no clouds below 12,000 feet with no
significant weather and/or obstructions to visibility.

* = STATION THAT DOES NOT REPORT PRECIPITATION /E.G. RAIN...SNOW...ETC/
    THUNDER OR FOG.

PAZ002>004-007>009-013>016-020>023-029>032-250800-
WESTERN PENNSYLVANIA

CITY           SKY/WX    TMP DP  RH WIND       PRES   REMARKS
ERIE           CLOUDY    45  40  82 NE5       30.08S HAZE
MEADVILLE      CLOUDY    62  50  64 SW8       30.07S
FRANKLIN*      CLOUDY    61  48  63 SW8       30.10S
NEW CASTLE     FAIR      61  52  72 VRB5      30.10F
BEAVER COUNTY  NOT AVBL
BUTLER*        CLOUDY    63  50  63 SW8       30.12F
PITTSBURGH INT CLOUDY    65  52  62 W5        30.12S
PITTSBURGH     CLOUDY    64  49  57 SW6       30.12S
INDIANA*       CLOUDY    57  52  82 W6        30.15S
LATROBE        CLOUDY    63  50  63 S8        30.15R
WASHINGTON CO* CLOUDY    63  48  59 SW6       30.15S
$$

PAZ004>006-010>012-017>019-024>028-033>037-041-042-045-046-049>053-250800-
CENTRAL PENNSYLVANIA

CITY           SKY/WX    TMP DP  RH WIND       PRES   REMARKS
BRADFORD       MOCLDY    60  52  74 W9G16     30.07S
DUBOIS         PTCLDY    58  48  69 SW7       30.10R
CLEARFIELD       N/A    N/A N/A N/A MISG      30.10F
JOHNSTOWN      CLOUDY    60  50  69 W10       30.14F
ALTOONA        MOCLDY    61  51  70 SW12      30.13S
STATE COLLEGE  PTCLDY    59  50  72 SW6       30.10S
WILLIAMSPORT   PTCLDY    39  36  89 CALM      30.09F
SELINSGROVE    MOCLDY    41  38  89 CALM      30.10F
FT INDIANTOWN  CLOUDY    42  42  99 CALM      30.11F
CAPITAL CITY   CLOUDY    47  38  71 CALM      30.11F
HARRISBURG     MOCLDY    46  40  79 CALM      30.11F
YORK           CLOUDY    48  42  80 CALM      30.11F
$$

PAZ038>040-043-044-047-048-054-055-060>062-067>071-250800-
EASTERN PENNSYLVANIA

CITY           SKY/WX    TMP DP  RH WIND       PRES   REMARKS
SCRANTON       PTCLDY    48  39  71 SW6       30.06F
MOUNT POCONO   CLOUDY    46  40  79 W9        30.06F
ALLENTOWN      MOCLDY    41  34  76 CALM      30.09F
QUAKERTOWN*    CLOUDY    39  32  75 MISG      30.10F
READING        CLOUDY    43  37  79 CALM      30.11S
LANCASTER      CLOUDY    45  38  76 CALM      30.12S
COATESVILLE    MOSUNNY   52  41  66 SW5       30.13F
POTTSTOWN      CLOUDY    43  35  73 CALM      30.12F
BLUE BELL      PTCLDY    41  36  81 CALM      30.10F
DOYLESTOWN     CLOUDY   N/A N/A N/A SW5       30.10F
WILLOW GROVE   NOT AVBL
NORTH PHILA    CLOUDY    49  37  63 SW3       30.13F
PHILADELPHIA   NOT AVBL
$$




USA.gov is the U.S. government's official web portal to all federal, state and local government web resources and services.